Tracking 25612 objects as of 20-May-2022
HD Live streaming from Space Station
objects crossing your sky now

TIANHUI 1-02 DEB

Track TIANHUI 1-02 DEB now!
10-day predictions


NORAD ID: 38270
Int'l Code: 2012-020C
Perigee: 427.5 km
Apogee: 510.1 km
Inclination: 97.4 °
Period: 93.8 minutes
Semi major axis: 6839 km
RCS: 0.0013 m2 (small)
Launch date: May 6, 2012
Source: People's Republic of China (PRC)
Launch site: Jiuquan Satellite Launch Center, China (JSC)

Note: This is SATELLITE DEBRIS
aabbcc
Your satellite tracking list
Your tracking list is empty




NASA's NSSDC Master Catalog

Two Line Element Set (TLE):
1 38270U 12020C   22139.62458324  .00134712  00000-0  37138-2 0  9998
2 38270  97.3625  69.6766 0060394 327.4526  32.2999 15.34753818547965
Source of the keplerian elements: AFSPC